| time (UTC) | temp C | wind direction | speed KPH | gust KPH | rain 1hr cm | rain 24hr cm | rain mn cm | humidity % | barometer mb |
| 20260510192631 | 21 | 41 | 4.8 | 6.4 | 0.00 | 0.00 | 0.00 | 47 | 1020.8 |
| 20260510192127 | 21 | 41 | 4.8 | 9.7 | 0.00 | 0.00 | 0.00 | 47 | 1021.0 |
| 20260510191624 | 21 | 37 | 1.6 | 1.6 | 0.00 | 0.00 | 0.00 | 51 | 1020.9 |
| 20260510191120 | 21 | 38 | 4.8 | 6.4 | 0.00 | 0.00 | 0.00 | 48 | 1021.1 |
| 20260510190617 | 21 | 62 | 1.6 | 3.2 | 0.00 | 0.00 | 0.00 | 47 | 1020.7 |
| 20260510190115 | 21 | 62 | 1.6 | 3.2 | 0.00 | 0.00 | 0.00 | 48 | 1021.1 |
| 20260510185611 | 21 | 23 | 4.8 | 4.8 | 0.00 | 0.00 | 0.00 | 46 | 1020.9 |
| 20260510185109 | 21 | 57 | 0.0 | 3.2 | 0.00 | 0.00 | 0.00 | 48 | 1020.9 |
| 20260510184606 | 21 | 20 | 3.2 | 6.4 | 0.00 | 0.00 | 0.00 | 46 | 1021.0 |
| 20260510184102 | 21 | 36 | 3.2 | 4.8 | 0.00 | 0.00 | 0.00 | 47 | 1021.0 |
| 20260510183557 | 21 | 36 | 1.6 | 3.2 | 0.00 | 0.00 | 0.00 | 49 | 1021.1 |
| 20260510183053 | 21 | 43 | 3.2 | 3.2 | 0.00 | 0.00 | 0.00 | 48 | 1020.8 |
| 20260510182550 | 21 | 340 | 1.6 | 3.2 | 0.00 | 0.00 | 0.00 | 54 | 1020.8 |
| 20260510182049 | 20 | 337 | 1.6 | 3.2 | 0.00 | 0.00 | 0.00 | 53 | 1021.0 |
| 20260510181548 | 21 | 314 | 4.8 | 4.8 | 0.00 | 0.00 | 0.00 | 53 | 1020.9 |
| 20260510181043 | 21 | 11 | 3.2 | 4.8 | 0.00 | 0.00 | 0.00 | 51 | 1020.7 |
| 20260510180540 | 21 | 24 | 3.2 | 4.8 | 0.00 | 0.00 | 0.00 | 51 | 1020.8 |
| 20260510180038 | 21 | 357 | 1.6 | 4.8 | 0.00 | 0.00 | 0.00 | 52 | 1020.6 |
| 20260510175533 | 21 | 26 | 3.2 | 4.8 | 0.00 | 0.00 | 0.00 | 51 | 1020.6 |
| 20260510175030 | 20 | 47 | 4.8 | 6.4 | 0.00 | 0.00 | 0.00 | 51 | 1020.6 |
| 20260510174528 | 20 | 17 | 1.6 | 4.8 | 0.00 | 0.00 | 0.00 | 52 | 1020.7 |
| 20260510174025 | 20 | 53 | 1.6 | 11.3 | 0.00 | 0.00 | 0.00 | 53 | 1020.5 |
| 20260510173519 | 20 | 45 | 4.8 | 11.3 | 0.00 | 0.00 | 0.00 | 53 | 1020.5 |
| 20260510173016 | 21 | 36 | 3.2 | 6.4 | 0.00 | 0.00 | 0.00 | 55 | 1020.6 |
| 20260510172512 | 20 | 41 | 1.6 | 3.2 | 0.00 | 0.00 | 0.00 | 57 | 1020.3 |
| 20260510172009 | 20 | 48 | 0.0 | 4.8 | 0.00 | 0.00 | 0.00 | 58 | 1020.5 |
| 20260510171505 | 20 | 340 | 3.2 | 9.7 | 0.00 | 0.00 | 0.00 | 59 | 1020.4 |
| 20260510171002 | 20 | 53 | 3.2 | 4.8 | 0.00 | 0.00 | 0.00 | 59 | 1020.4 |
| 20260510170459 | 20 | 25 | 3.2 | 4.8 | 0.00 | 0.00 | 0.00 | 58 | 1020.3 |
| 20260510165954 | 20 | 75 | 1.6 | 3.2 | 0.00 | 0.00 | 0.00 | 57 | 1020.4 |
| 20260510165451 | 20 | 79 | 3.2 | 9.7 | 0.00 | 0.00 | 0.00 | 58 | 1020.3 |
| 20260510164948 | 19 | 12 | 3.2 | 4.8 | 0.00 | 0.00 | 0.00 | 60 | 1020.2 |
| 20260510164445 | 19 | 55 | 3.2 | 6.4 | 0.00 | 0.00 | 0.00 | 59 | 1020.3 |
| 20260510163940 | 19 | 34 | 3.2 | 6.4 | 0.00 | 0.00 | 0.00 | 62 | 1020.0 |
| 20260510163436 | 19 | 42 | 1.6 | 3.2 | 0.00 | 0.00 | 0.00 | 63 | 1020.2 |
| 20260510162931 | 19 | 50 | 1.6 | 9.7 | 0.00 | 0.00 | 0.00 | 63 | 1020.1 |
| 20260510162428 | 18 | 44 | 3.2 | 6.4 | 0.00 | 0.00 | 0.00 | 65 | 1020.1 |
| 20260510161924 | 19 | 36 | 3.2 | 4.8 | 0.00 | 0.00 | 0.00 | 65 | 1019.9 |
| 20260510161420 | 18 | 30 | 3.2 | 6.4 | 0.00 | 0.00 | 0.00 | 67 | 1019.9 |
| 20260510160918 | 18 | 30 | 3.2 | 6.4 | 0.00 | 0.00 | 0.00 | 67 | 1019.8 |
| 20260510160415 | 18 | 46 | 1.6 | 9.7 | 0.00 | 0.00 | 0.00 | 68 | 1020.0 |
| 20260510155913 | 18 | 35 | 4.8 | 4.8 | 0.00 | 0.00 | 0.00 | 67 | 1019.7 |
| 20260510155410 | 18 | 347 | 4.8 | 9.7 | 0.00 | 0.00 | 0.00 | 67 | 1019.5 |
| 20260510154906 | 18 | 32 | 3.2 | 4.8 | 0.00 | 0.00 | 0.00 | 68 | 1019.6 |
| 20260510154403 | 19 | 347 | 6.4 | 9.7 | 0.00 | 0.00 | 0.00 | 68 | 1019.5 |
| 20260510153856 | 18 | 27 | 1.6 | 6.4 | 0.00 | 0.00 | 0.00 | 69 | 1019.2 |
| 20260510153353 | 18 | 16 | 0.0 | 4.8 | 0.00 | 0.00 | 0.00 | 68 | 1019.2 |
| 20260510152850 | 18 | 337 | 1.6 | 6.4 | 0.00 | 0.00 | 0.00 | 70 | 1019.4 |
| 20260510152347 | 18 | 21 | 1.6 | 3.2 | 0.00 | 0.00 | 0.00 | 68 | 1019.4 |
| 20260510151843 | 18 | 29 | 3.2 | 3.2 | 0.00 | 0.00 | 0.00 | 70 | 1019.3 |
| 20260510151341 | 18 | 322 | 3.2 | 4.8 | 0.00 | 0.00 | 0.00 | 69 | 1019.4 |
| 20260510150837 | 18 | 32 | 0.0 | 3.2 | 0.00 | 0.00 | 0.00 | 70 | 1019.4 |
| 20260510150333 | 18 | 270 | 1.6 | 3.2 | 0.00 | 0.00 | 0.00 | 71 | 1019.5 |
| 20260510145829 | 18 | 323 | 1.6 | 3.2 | 0.00 | 0.00 | 0.00 | 70 | 1019.6 |
| 20260510145325 | 18 | 48 | 1.6 | 4.8 | 0.00 | 0.00 | 0.00 | 70 | 1019.6 |
| 20260510144822 | 18 | 18 | 1.6 | 3.2 | 0.00 | 0.00 | 0.00 | 71 | 1019.6 |
| 20260510144319 | 18 | 33 | 0.0 | 3.2 | 0.00 | 0.00 | 0.00 | 71 | 1019.6 |
| 20260510143819 | 18 | 39 | 1.6 | 3.2 | 0.00 | 0.00 | 0.00 | 71 | 1019.5 |
| 20260510143315 | 18 | 325 | 3.2 | 4.8 | 0.00 | 0.00 | 0.00 | 72 | 1019.6 |
| 20260510142812 | 18 | 304 | 4.8 | 4.8 | 0.00 | 0.00 | 0.00 | 72 | 1019.7 |
| 20260510142309 | 18 | 26 | 1.6 | 4.8 | 0.00 | 0.00 | 0.00 | 73 | 1019.7 |
| 20260510141806 | 18 | 43 | 1.6 | 3.2 | 0.00 | 0.00 | 0.00 | 73 | 1019.5 |
| 20260510141303 | 18 | 9 | 1.6 | 3.2 | 0.00 | 0.00 | 0.00 | 74 | 1019.7 |
| 20260510140801 | 18 | 299 | 3.2 | 3.2 | 0.00 | 0.00 | 0.00 | 73 | 1019.7 |
| 20260510140256 | 18 | 290 | 3.2 | 4.8 | 0.00 | 0.00 | 0.00 | 74 | 1019.7 |
| 20260510135749 | 18 | 336 | 6.4 | 9.7 | 0.00 | 0.00 | 0.00 | 75 | 1019.6 |
| 20260510135245 | 18 | 299 | 4.8 | 4.8 | 0.00 | 0.00 | 0.00 | 74 | 1019.4 |
| 20260510134743 | 17 | 33 | 3.2 | 6.4 | 0.00 | 0.00 | 0.00 | 76 | 1019.3 |
| 20260510134240 | 17 | 35 | 1.6 | 3.2 | 0.00 | 0.00 | 0.00 | 76 | 1019.1 |
| 20260510133736 | 17 | 324 | 1.6 | 1.6 | 0.00 | 0.00 | 0.00 | 77 | 1018.8 |
| 20260510133231 | 17 | 44 | 1.6 | 4.8 | 0.00 | 0.00 | 0.00 | 77 | 1018.8 |
| 20260510132728 | 16 | 10 | 1.6 | 1.6 | 0.00 | 0.00 | 0.00 | 79 | 1018.6 |
| 20260510132225 | 17 | 311 | 4.8 | 4.8 | 0.00 | 0.00 | 0.00 | 78 | 1018.5 |
| 20260510131722 | 16 | 31 | 1.6 | 3.2 | 0.00 | 0.00 | 0.00 | 78 | 1018.5 |
| 20260510131220 | 16 | 54 | 1.6 | 1.6 | 0.00 | 0.00 | 0.00 | 78 | 1018.3 |
| 20260510130716 | 16 | 19 | 0.0 | 1.6 | 0.00 | 0.00 | 0.00 | 78 | 1018.4 |
| 20260510130214 | 16 | 299 | 1.6 | 3.2 | 0.00 | 0.00 | 0.00 | 80 | 1018.3 |
| 20260510125709 | 16 | 38 | 0.0 | 4.8 | 0.00 | 0.00 | 0.00 | 81 | 1018.3 |
| 20260510125206 | 16 | 335 | 1.6 | 1.6 | 0.00 | 0.00 | 0.00 | 83 | 1018.3 |
| 20260510124657 | 15 | 340 | 0.0 | 1.6 | 0.00 | 0.00 | 0.00 | 84 | 1018.2 |
| 20260510124154 | 14 | 339 | 1.6 | 1.6 | 0.00 | 0.00 | 0.00 | 88 | 1018.1 |
| 20260510123649 | 14 | 1 | 0.0 | 0.0 | 0.00 | 0.00 | 0.00 | 90 | 1018.0 |
| 20260510123146 | 14 | 13 | 0.0 | 0.0 | 0.00 | 0.00 | 0.00 | 88 | 1017.8 |
| 20260510122642 | 14 | 14 | 0.0 | 0.0 | 0.00 | 0.00 | 0.00 | 90 | 1017.6 |
| 20260510122138 | 14 | 14 | 0.0 | 0.0 | 0.00 | 0.00 | 0.00 | 90 | 1017.5 |
| 20260510121635 | 13 | 358 | 0.0 | 1.6 | 0.00 | 0.00 | 0.00 | 92 | 1017.5 |
| 20260510121132 | 13 | 324 | 0.0 | 0.0 | 0.00 | 0.00 | 0.00 | 93 | 1017.6 |
| 20260510120630 | 13 | 323 | 0.0 | 0.0 | 0.00 | 0.00 | 0.00 | 94 | 1017.5 |
| 20260510120125 | 12 | 302 | 3.2 | 3.2 | 0.00 | 0.00 | 0.00 | 95 | 1017.6 |
| 20260510115622 | 12 | 334 | 3.2 | 4.8 | 0.00 | 0.00 | 0.00 | 94 | 1017.2 |
| 20260510115120 | 12 | 163 | 0.0 | 0.0 | 0.00 | 0.00 | 0.00 | 94 | 1017.0 |
| 20260510114615 | 12 | 163 | 0.0 | 0.0 | 0.00 | 0.00 | 0.00 | 93 | 1017.1 |
| 20260510114111 | 12 | 163 | 0.0 | 0.0 | 0.00 | 0.00 | 0.00 | 93 | 1017.2 |
| 20260510113607 | 12 | 163 | 0.0 | 0.0 | 0.00 | 0.00 | 0.00 | 93 | 1017.1 |
| 20260510113105 | 12 | 163 | 0.0 | 0.0 | 0.00 | 0.00 | 0.00 | 93 | 1017.0 |
| 20260510112601 | 12 | 163 | 0.0 | 0.0 | 0.00 | 0.00 | 0.00 | 93 | 1016.8 |
| 20260510112057 | 12 | 163 | 0.0 | 0.0 | 0.00 | 0.00 | 0.00 | 93 | 1016.8 |
| 20260510111554 | 12 | 163 | 0.0 | 0.0 | 0.00 | 0.00 | 0.00 | 93 | 1016.8 |
| 20260510111050 | 12 | 163 | 0.0 | 0.0 | 0.00 | 0.00 | 0.00 | 92 | 1016.8 |
| 20260510110546 | 12 | 175 | 0.0 | 0.0 | 0.00 | 0.00 | 0.00 | 93 | 1016.7 |
| 20260510110043 | 12 | 164 | 3.2 | 3.2 | 0.00 | 0.00 | 0.00 | 94 | 1016.6 |
| 20260510105538 | 12 | 162 | 0.0 | 0.0 | 0.00 | 0.00 | 0.00 | 95 | 1016.9 |
| 20260510105033 | 12 | 162 | 1.6 | 1.6 | 0.00 | 0.00 | 0.00 | 95 | 1016.8 |
| 20260510104530 | 12 | 164 | 0.0 | 3.2 | 0.00 | 0.00 | 0.00 | 95 | 1016.7 |
| 20260510104026 | 12 | 227 | 0.0 | 0.0 | 0.00 | 0.00 | 0.00 | 94 | 1016.6 |
| 20260510103524 | 12 | 227 | 0.0 | 0.0 | 0.00 | 0.00 | 0.00 | 94 | 1016.6 |
| 20260510103020 | 13 | 227 | 0.0 | 0.0 | 0.00 | 0.00 | 0.00 | 94 | 1016.6 |
| 20260510102516 | 13 | 227 | 0.0 | 0.0 | 0.00 | 0.00 | 0.00 | 94 | 1016.5 |
| 20260510102012 | 13 | 227 | 0.0 | 0.0 | 0.00 | 0.00 | 0.00 | 94 | 1016.7 |
| 20260510101509 | 13 | 227 | 0.0 | 0.0 | 0.00 | 0.00 | 0.00 | 93 | 1016.6 |
| 20260510101009 | 13 | 227 | 0.0 | 0.0 | 0.00 | 0.00 | 0.00 | 94 | 1016.6 |
| 20260510100504 | 13 | 227 | 0.0 | 0.0 | 0.00 | 0.00 | 0.00 | 94 | 1016.6 |
| 20260510100001 | 13 | 220 | 0.0 | 0.0 | 0.00 | 0.00 | 0.00 | 93 | 1016.4 |
| 20260510095456 | 13 | 219 | 0.0 | 0.0 | 0.00 | 0.00 | 0.00 | 93 | 1016.3 |
| 20260510094955 | 13 | 218 | 0.0 | 0.0 | 0.00 | 0.00 | 0.00 | 93 | 1016.2 |
| 20260510094450 | 13 | 218 | 0.0 | 1.6 | 0.00 | 0.00 | 0.00 | 93 | 1016.1 |
| 20260510093947 | 13 | 351 | 0.0 | 0.0 | 0.00 | 0.00 | 0.00 | 93 | 1016.0 |
| 20260510093442 | 13 | 351 | 0.0 | 0.0 | 0.00 | 0.00 | 0.00 | 93 | 1015.6 |
| 20260510092939 | 13 | 351 | 0.0 | 0.0 | 0.00 | 0.00 | 0.00 | 93 | 1015.9 |
| 20260510092436 | 13 | 351 | 0.0 | 0.0 | 0.00 | 0.00 | 0.00 | 93 | 1015.8 |
| 20260510091936 | 13 | 351 | 0.0 | 0.0 | 0.00 | 0.00 | 0.00 | 92 | 1015.8 |
| 20260510091433 | 13 | 352 | 0.0 | 0.0 | 0.00 | 0.00 | 0.00 | 92 | 1015.8 |
| 20260510090930 | 13 | 320 | 0.0 | 0.0 | 0.00 | 0.00 | 0.00 | 92 | 1015.9 |
| 20260510090426 | 13 | 358 | 0.0 | 0.0 | 0.00 | 0.00 | 0.00 | 92 | 1015.8 |
| 20260510085922 | 13 | 220 | 0.0 | 0.0 | 0.00 | 0.00 | 0.00 | 91 | 1015.9 |
| 20260510085418 | 13 | 173 | 0.0 | 0.0 | 0.00 | 0.00 | 0.00 | 91 | 1015.9 |
| 20260510084912 | 13 | 173 | 0.0 | 0.0 | 0.00 | 0.00 | 0.00 | 91 | 1015.9 |
| 20260510084411 | 13 | 173 | 1.6 | 4.8 | 0.00 | 0.00 | 0.00 | 92 | 1015.8 |
| 20260510083907 | 13 | 169 | 1.6 | 3.2 | 0.00 | 0.00 | 0.00 | 92 | 1015.8 |
| 20260510083404 | 13 | 163 | 1.6 | 4.8 | 0.00 | 0.00 | 0.00 | 92 | 1015.5 |
| 20260510082859 | 13 | 140 | 0.0 | 0.0 | 0.00 | 0.00 | 0.00 | 92 | 1016.0 |
| 20260510082357 | 13 | 1 | 0.0 | 0.0 | 0.00 | 0.00 | 0.00 | 92 | 1015.6 |
| 20260510081855 | 13 | 300 | 0.0 | 0.0 | 0.00 | 0.00 | 0.00 | 93 | 1015.5 |
| 20260510081351 | 13 | 299 | 0.0 | 0.0 | 0.00 | 0.00 | 0.00 | 93 | 1015.4 |
| 20260510080849 | 13 | 299 | 0.0 | 0.0 | 0.00 | 0.00 | 0.00 | 93 | 1015.1 |
| 20260510080342 | 13 | 299 | 0.0 | 0.0 | 0.00 | 0.00 | 0.00 | 93 | 1015.4 |
| 20260510075839 | 12 | 299 | 0.0 | 0.0 | 0.00 | 0.00 | 0.00 | 93 | 1015.3 |
| 20260510075337 | 12 | 300 | 0.0 | 0.0 | 0.00 | 0.00 | 0.00 | 94 | 1015.3 |
| 20260510074833 | 12 | 300 | 0.0 | 0.0 | 0.00 | 0.00 | 0.00 | 94 | 1015.4 |
| 20260510074331 | 12 | 289 | 0.0 | 0.0 | 0.00 | 0.00 | 0.00 | 95 | 1015.6 |
| 20260510073827 | 12 | 319 | 0.0 | 0.0 | 0.00 | 0.00 | 0.00 | 95 | 1015.5 |
| 20260510073323 | 12 | 261 | 0.0 | 1.6 | 0.00 | 0.00 | 0.00 | 94 | 1015.4 |
| 20260510072819 | 12 | 208 | 0.0 | 0.0 | 0.00 | 0.00 | 0.00 | 94 | 1015.2 |
| 20260510072316 | 12 | 207 | 0.0 | 0.0 | 0.00 | 0.00 | 0.00 | 93 | 1015.0 |
| 20260510071813 | 12 | 207 | 0.0 | 0.0 | 0.00 | 0.00 | 0.00 | 93 | 1015.1 |
| 20260510071309 | 12 | 207 | 0.0 | 0.0 | 0.00 | 0.00 | 0.00 | 93 | 1014.9 |
| 20260510070808 | 12 | 207 | 0.0 | 0.0 | 0.00 | 0.00 | 0.00 | 92 | 1015.0 |
| 20260510070304 | 12 | 207 | 0.0 | 0.0 | 0.00 | 0.00 | 0.00 | 92 | 1014.9 |
| 20260510065759 | 12 | 207 | 0.0 | 0.0 | 0.00 | 0.00 | 0.00 | 92 | 1015.2 |
| 20260510065256 | 12 | 207 | 0.0 | 0.0 | 0.00 | 0.00 | 0.00 | 92 | 1015.2 |
| 20260510064753 | 12 | 207 | 0.0 | 0.0 | 0.00 | 0.00 | 0.00 | 92 | 1015.0 |
| 20260510064251 | 12 | 207 | 0.0 | 0.0 | 0.00 | 0.00 | 0.00 | 92 | 1015.0 |
| 20260510063746 | 12 | 207 | 0.0 | 1.6 | 0.00 | 0.00 | 0.00 | 92 | 1015.2 |
| 20260510063242 | 12 | 207 | 1.6 | 1.6 | 0.00 | 0.00 | 0.00 | 92 | 1015.0 |
| 20260510062739 | 13 | 208 | 0.0 | 0.0 | 0.00 | 0.00 | 0.00 | 92 | 1015.3 |
| 20260510062235 | 13 | 208 | 0.0 | 0.0 | 0.00 | 0.00 | 0.00 | 92 | 1015.2 |
| 20260510061731 | 13 | 208 | 0.0 | 0.0 | 0.00 | 0.00 | 0.00 | 91 | 1015.4 |
| 20260510061228 | 13 | 209 | 0.0 | 0.0 | 0.00 | 0.00 | 0.00 | 91 | 1015.3 |
| 20260510060724 | 13 | 209 | 0.0 | 1.6 | 0.00 | 0.00 | 0.00 | 91 | 1015.3 |
| 20260510060221 | 13 | 229 | 0.0 | 0.0 | 0.00 | 0.00 | 0.00 | 91 | 1015.2 |
| 20260510055717 | 13 | 229 | 0.0 | 0.0 | 0.00 | 0.00 | 0.00 | 91 | 1015.2 |
| 20260510055216 | 13 | 230 | 0.0 | 1.6 | 0.00 | 0.00 | 0.00 | 91 | 1015.3 |
| 20260510054715 | 13 | 251 | 0.0 | 0.0 | 0.00 | 0.00 | 0.00 | 91 | 1015.1 |
| 20260510054211 | 13 | 251 | 0.0 | 0.0 | 0.00 | 0.00 | 0.00 | 91 | 1015.3 |
| 20260510053706 | 13 | 251 | 0.0 | 0.0 | 0.00 | 0.00 | 0.00 | 90 | 1015.2 |
| 20260510053203 | 13 | 251 | 0.0 | 0.0 | 0.00 | 0.00 | 0.00 | 90 | 1015.3 |
| 20260510052658 | 13 | 251 | 0.0 | 0.0 | 0.00 | 0.00 | 0.00 | 90 | 1015.1 |
| 20260510052155 | 13 | 251 | 0.0 | 0.0 | 0.00 | 0.00 | 0.00 | 90 | 1015.0 |
| 20260510051650 | 13 | 251 | 0.0 | 0.0 | 0.00 | 0.00 | 0.00 | 90 | 1015.2 |
| 20260510051147 | 14 | 251 | 0.0 | 0.0 | 0.00 | 0.00 | 0.00 | 89 | 1015.0 |
| 20260510050644 | 14 | 251 | 0.0 | 0.0 | 0.00 | 0.00 | 0.00 | 89 | 1015.1 |
| 20260510050142 | 13 | 251 | 0.0 | 0.0 | 0.00 | 0.00 | 0.00 | 90 | 1015.2 |
| 20260510045638 | 13 | 251 | 0.0 | 0.0 | 0.00 | 0.00 | 0.00 | 90 | 1015.0 |
| 20260510045135 | 13 | 251 | 0.0 | 0.0 | 0.00 | 0.00 | 0.00 | 90 | 1015.0 |
| 20260510044631 | 13 | 251 | 0.0 | 0.0 | 0.00 | 0.00 | 0.00 | 89 | 1014.9 |
| 20260510044129 | 13 | 251 | 0.0 | 0.0 | 0.00 | 0.00 | 0.00 | 89 | 1014.9 |
| 20260510043624 | 14 | 251 | 0.0 | 0.0 | 0.00 | 0.00 | 0.00 | 89 | 1015.1 |
| 20260510043121 | 14 | 251 | 0.0 | 0.0 | 0.00 | 0.00 | 0.00 | 89 | 1015.1 |
| 20260510042619 | 14 | 251 | 0.0 | 0.0 | 0.00 | 0.00 | 0.00 | 88 | 1014.8 |
| 20260510042114 | 14 | 251 | 0.0 | 0.0 | 0.00 | 0.00 | 0.00 | 89 | 1014.9 |
| 20260510041612 | 14 | 251 | 0.0 | 0.0 | 0.00 | 0.00 | 0.00 | 88 | 1015.0 |
| 20260510041109 | 15 | 251 | 0.0 | 0.0 | 0.00 | 0.00 | 0.00 | 87 | 1014.9 |
| 20260510040606 | 15 | 251 | 0.0 | 0.0 | 0.00 | 0.00 | 0.00 | 87 | 1014.7 |
| 20260510035558 | 15 | 251 | 0.0 | 0.0 | 0.00 | 0.00 | 0.00 | 87 | 1014.4 |
| 20260510035057 | 15 | 251 | 0.0 | 0.0 | 0.00 | 0.00 | 0.00 | 87 | 1014.5 |
| 20260510034556 | 15 | 251 | 0.0 | 0.0 | 0.00 | 0.00 | 0.00 | 87 | 1014.2 |
| 20260510034052 | 15 | 251 | 0.0 | 0.0 | 0.00 | 0.00 | 0.00 | 87 | 1014.4 |
| 20260510033549 | 15 | 250 | 0.0 | 0.0 | 0.00 | 0.00 | 0.00 | 86 | 1014.5 |
| 20260510033046 | 15 | 251 | 0.0 | 0.0 | 0.00 | 0.00 | 0.00 | 86 | 1014.4 |
| 20260510032543 | 15 | 251 | 0.0 | 0.0 | 0.00 | 0.00 | 0.00 | 85 | 1014.2 |
| 20260510032038 | 16 | 251 | 0.0 | 0.0 | 0.00 | 0.00 | 0.00 | 84 | 1014.1 |
| 20260510031533 | 16 | 251 | 0.0 | 0.0 | 0.00 | 0.00 | 0.00 | 84 | 1014.2 |
| 20260510031029 | 16 | 251 | 0.0 | 0.0 | 0.00 | 0.00 | 0.00 | 82 | 1014.3 |
| 20260510030525 | 16 | 251 | 0.0 | 0.0 | 0.00 | 0.00 | 0.00 | 81 | 1014.2 |
| 20260510030022 | 16 | 251 | 0.0 | 0.0 | 0.00 | 0.00 | 0.00 | 80 | 1014.1 |
| 20260510025519 | 16 | 251 | 0.0 | 0.0 | 0.00 | 0.00 | 0.00 | 79 | 1014.0 |
| 20260510025017 | 16 | 251 | 0.0 | 0.0 | 0.00 | 0.00 | 0.00 | 80 | 1013.8 |
| 20260510024513 | 16 | 251 | 0.0 | 0.0 | 0.00 | 0.00 | 0.00 | 79 | 1013.7 |
| 20260510024010 | 16 | 251 | 0.0 | 0.0 | 0.00 | 0.00 | 0.00 | 78 | 1013.4 |
| 20260510023506 | 16 | 251 | 0.0 | 0.0 | 0.00 | 0.00 | 0.00 | 78 | 1013.4 |
| 20260510023003 | 17 | 251 | 0.0 | 0.0 | 0.00 | 0.00 | 0.00 | 77 | 1013.4 |
| 20260510022502 | 17 | 251 | 0.0 | 0.0 | 0.00 | 0.00 | 0.00 | 76 | 1013.1 |
| 20260510022002 | 17 | 251 | 0.0 | 0.0 | 0.00 | 0.00 | 0.00 | 75 | 1012.9 |
| 20260510021459 | 17 | 251 | 0.0 | 0.0 | 0.00 | 0.00 | 0.00 | 75 | 1013.0 |
| 20260510020956 | 17 | 251 | 0.0 | 0.0 | 0.00 | 0.00 | 0.00 | 74 | 1012.8 |
| 20260510020450 | 17 | 251 | 0.0 | 0.0 | 0.00 | 0.00 | 0.00 | 73 | 1012.7 |
| 20260510015946 | 18 | 251 | 0.0 | 0.0 | 0.00 | 0.00 | 0.00 | 72 | 1012.7 |
| 20260510015437 | 18 | 251 | 0.0 | 0.0 | 0.00 | 0.00 | 0.00 | 70 | 1012.6 |
| 20260510014932 | 18 | 251 | 0.0 | 0.0 | 0.00 | 0.00 | 0.00 | 69 | 1012.3 |
| 20260510014430 | 18 | 251 | 0.0 | 0.0 | 0.00 | 0.00 | 0.00 | 68 | 1012.3 |
| 20260510013926 | 18 | 251 | 0.0 | 0.0 | 0.00 | 0.00 | 0.00 | 68 | 1012.3 |
| 20260510013421 | 19 | 251 | 0.0 | 0.0 | 0.00 | 0.00 | 0.00 | 67 | 1012.2 |
| 20260510012917 | 20 | 251 | 0.0 | 0.0 | 0.00 | 0.00 | 0.00 | 65 | 1012.1 |
| 20260510012412 | 20 | 251 | 0.0 | 0.0 | 0.00 | 0.00 | 0.00 | 64 | 1012.0 |
| 20260510011907 | 20 | 251 | 0.0 | 0.0 | 0.00 | 0.00 | 0.00 | 62 | 1012.0 |
| 20260510011402 | 20 | 251 | 0.0 | 0.0 | 0.00 | 0.00 | 0.00 | 61 | 1011.6 |
| 20260510010858 | 21 | 251 | 0.0 | 0.0 | 0.00 | 0.00 | 0.00 | 59 | 1011.7 |
| 20260510010356 | 21 | 251 | 0.0 | 0.0 | 0.00 | 0.00 | 0.00 | 59 | 1011.7 |
| 20260510005852 | 21 | 251 | 0.0 | 0.0 | 0.00 | 0.00 | 0.00 | 57 | 1011.6 |
| 20260510005349 | 21 | 251 | 0.0 | 0.0 | 0.00 | 0.00 | 0.00 | 55 | 1011.6 |
| 20260510004846 | 22 | 251 | 0.0 | 0.0 | 0.00 | 0.00 | 0.00 | 54 | 1011.6 |
| 20260510004344 | 22 | 251 | 0.0 | 0.0 | 0.00 | 0.00 | 0.00 | 52 | 1011.6 |
| 20260510003842 | 22 | 251 | 0.0 | 0.0 | 0.00 | 0.00 | 0.00 | 50 | 1011.5 |
| 20260510003338 | 22 | 251 | 0.0 | 0.0 | 0.00 | 0.00 | 0.00 | 47 | 1011.4 |
| 20260510002837 | 23 | 251 | 0.0 | 0.0 | 0.00 | 0.00 | 0.00 | 45 | 1011.4 |
| 20260510002334 | 23 | 251 | 0.0 | 0.0 | 0.00 | 0.00 | 0.00 | 46 | 1011.4 |
| 20260510001831 | 23 | 251 | 0.0 | 0.0 | 0.00 | 0.00 | 0.00 | 45 | 1011.4 |
| 20260510001329 | 23 | 251 | 0.0 | 0.0 | 0.00 | 0.00 | 0.00 | 43 | 1011.4 |
| 20260510000825 | 24 | 251 | 0.0 | 0.0 | 0.00 | 0.00 | 0.00 | 42 | 1011.4 |
| 20260510000322 | 24 | 251 | 0.0 | 0.0 | 0.00 | 0.00 | 0.00 | 40 | 1011.4 |
| 20260509235819 | 24 | 251 | 0.0 | 0.0 | 0.00 | 0.00 | 0.00 | 39 | 1011.4 |
| 20260509235315 | 24 | 251 | 0.0 | 0.0 | 0.00 | 0.00 | 0.00 | 39 | 1011.4 |
| 20260509234811 | 25 | 251 | 0.0 | 0.0 | 0.00 | 0.00 | 0.00 | 39 | 1011.4 |
| 20260509234308 | 25 | 251 | 0.0 | 0.0 | 0.00 | 0.00 | 0.00 | 38 | 1011.3 |
| 20260509233806 | 26 | 251 | 0.0 | 0.0 | 0.00 | 0.00 | 0.00 | 37 | 1011.4 |
| 20260509233304 | 26 | 251 | 0.0 | 0.0 | 0.00 | 0.00 | 0.00 | 33 | 1011.5 |
| 20260509232759 | 27 | 251 | 0.0 | 1.6 | 0.00 | 0.00 | 0.00 | 34 | 1011.5 |
| 20260509232257 | 27 | 251 | 0.0 | 0.0 | 0.00 | 0.00 | 0.00 | 37 | 1011.4 |
| 20260509231753 | 27 | 251 | 0.0 | 1.6 | 0.00 | 0.00 | 0.00 | 36 | 1011.6 |
| 20260509231250 | 27 | 251 | 0.0 | 1.6 | 0.00 | 0.00 | 0.00 | 37 | 1011.3 |
| 20260509230748 | 28 | 251 | 1.6 | 1.6 | 0.00 | 0.00 | 0.00 | 34 | 1011.4 |
| 20260509230245 | 27 | 242 | 1.6 | 3.2 | 0.00 | 0.00 | 0.00 | 31 | 1011.4 |
| 20260509225745 | 27 | 235 | 1.6 | 1.6 | 0.00 | 0.00 | 0.00 | 35 | 1011.7 |
| 20260509225241 | 27 | 264 | 0.0 | 0.0 | 0.00 | 0.00 | 0.00 | 40 | 1011.4 |
| 20260509224737 | 27 | 264 | 0.0 | 1.6 | 0.00 | 0.00 | 0.00 | 38 | 1011.4 |
| 20260509224235 | 27 | 20 | 0.0 | 1.6 | 0.00 | 0.00 | 0.00 | 33 | 1011.4 |
| 20260509223731 | 27 | 356 | 0.0 | 0.0 | 0.00 | 0.00 | 0.00 | 32 | 1011.5 |
| 20260509223228 | 27 | 356 | 0.0 | 0.0 | 0.00 | 0.00 | 0.00 | 31 | 1011.4 |
| 20260509222725 | 27 | 264 | 0.0 | 1.6 | 0.00 | 0.00 | 0.00 | 35 | 1011.4 |
| 20260509222220 | 27 | 270 | 0.0 | 1.6 | 0.00 | 0.00 | 0.00 | 34 | 1011.3 |
| 20260509221716 | 27 | 279 | 0.0 | 1.6 | 0.00 | 0.00 | 0.00 | 35 | 1011.4 |
| 20260509221213 | 27 | 302 | 1.6 | 3.2 | 0.00 | 0.00 | 0.00 | 30 | 1011.4 |
| 20260509220708 | 27 | 338 | 3.2 | 3.2 | 0.00 | 0.00 | 0.00 | 32 | 1011.5 |
| 20260509220205 | 27 | 275 | 0.0 | 1.6 | 0.00 | 0.00 | 0.00 | 37 | 1011.4 |
| 20260509215701 | 27 | 264 | 1.6 | 1.6 | 0.00 | 0.00 | 0.00 | 34 | 1011.4 |
| 20260509215158 | 27 | 261 | 0.0 | 3.2 | 0.00 | 0.00 | 0.00 | 36 | 1011.4 |
| 20260509214655 | 27 | 237 | 0.0 | 0.0 | 0.00 | 0.00 | 0.00 | 36 | 1011.5 |
| 20260509214152 | 27 | 298 | 1.6 | 3.2 | 0.00 | 0.00 | 0.00 | 34 | 1011.8 |
| 20260509213649 | 28 | 164 | 0.0 | 0.0 | 0.00 | 0.00 | 0.00 | 36 | 1011.5 |
| 20260509213139 | 27 | 188 | 0.0 | 0.0 | 0.00 | 0.00 | 0.00 | 34 | 1011.5 |
| 20260509212637 | 27 | 154 | 3.2 | 4.8 | 0.00 | 0.00 | 0.00 | 32 | 1011.6 |
| 20260509212133 | 28 | 224 | 1.6 | 4.8 | 0.00 | 0.00 | 0.00 | 34 | 1011.5 |
| 20260509211629 | 28 | 207 | 1.6 | 3.2 | 0.00 | 0.00 | 0.00 | 32 | 1011.6 |
| 20260509211126 | 28 | 316 | 1.6 | 4.8 | 0.00 | 0.00 | 0.00 | 30 | 1011.9 |
| 20260509210623 | 28 | 233 | 0.0 | 3.2 | 0.00 | 0.00 | 0.00 | 34 | 1011.8 |
| 20260509210120 | 27 | 240 | 1.6 | 3.2 | 0.00 | 0.00 | 0.00 | 31 | 1011.9 |
| 20260509205614 | 28 | 337 | 0.0 | 1.6 | 0.00 | 0.00 | 0.00 | 30 | 1011.9 |
| 20260509205109 | 27 | 284 | 1.6 | 4.8 | 0.00 | 0.00 | 0.00 | 31 | 1012.0 |
| 20260509204606 | 28 | 231 | 1.6 | 4.8 | 0.00 | 0.00 | 0.00 | 30 | 1011.7 |
| 20260509204102 | 28 | 312 | 0.0 | 4.8 | 0.00 | 0.00 | 0.00 | 30 | 1011.8 |
| 20260509203552 | 28 | 327 | 1.6 | 3.2 | 0.00 | 0.00 | 0.00 | 32 | 1011.8 |
| 20260509203051 | 28 | 145 | 0.0 | 1.6 | 0.00 | 0.00 | 0.00 | 32 | 1011.9 |
| 20260509202545 | 27 | 49 | 0.0 | 1.6 | 0.00 | 0.00 | 0.00 | 32 | 1012.0 |
| 20260509202041 | 27 | 33 | 0.0 | 1.6 | 0.00 | 0.00 | 0.00 | 31 | 1012.0 |
| 20260509201536 | 27 | 112 | 0.0 | 0.0 | 0.00 | 0.00 | 0.00 | 33 | 1012.0 |
| 20260509201034 | 27 | 27 | 3.2 | 3.2 | 0.00 | 0.00 | 0.00 | 31 | 1012.2 |
| 20260509200533 | 27 | 96 | 0.0 | 3.2 | 0.00 | 0.00 | 0.00 | 32 | 1012.3 |
| 20260509200030 | 27 | 321 | 4.8 | 4.8 | 0.00 | 0.00 | 0.00 | 30 | 1012.2 |
| 20260509195526 | 27 | 25 | 0.0 | 3.2 | 0.00 | 0.00 | 0.00 | 32 | 1012.3 |
| 20260509195026 | 27 | 327 | 0.0 | 3.2 | 0.00 | 0.00 | 0.00 | 32 | 1012.4 |
| 20260509194521 | 27 | 291 | 1.6 | 3.2 | 0.00 | 0.00 | 0.00 | 29 | 1012.3 |
| 20260509194018 | 28 | 309 | 1.6 | 3.2 | 0.00 | 0.00 | 0.00 | 30 | 1012.4 |
| 20260509193513 | 27 | 282 | 0.0 | 4.8 | 0.00 | 0.00 | 0.00 | 31 | 1012.7 |
| 20260509193010 | 27 | 323 | 1.6 | 1.6 | 0.00 | 0.00 | 0.00 | 31 | 1012.4 |